Zurück zum Katalog

FENGYUN 1C DEB

AktivSSO
NORAD 29914·DEBRIS·🇨🇳 China

Gestartet May 10, 1999 von Taiyuan Satellite Launch Center

Loading…

Nächste Überflüge (nächste 24 Stunden)

TLE

AktuellSource: Space-Track

Epoche: Sep 14, 2026, 20:02 UTC

1 29914U 99025HL  26257.83539712  .00000189  00000-0  14777-3 0  9997
2 29914  98.8181 283.2535 0036311  65.7248 106.8996 14.03234848  6570

Verfolge FENGYUN 1C DEB in Echtzeit mit AllMySat

Download on the App Store